When you browse on this site, cookies collect data to enhance your experience and personalize the content and advertising you see.
Visit our Privacy Policy to learn more. By continuing to use the site, you agree to this use of cookies and data.
  • In United Kingdom
  • List of Countries
  • For 7 days
  • Water Temperature
  • Weather Map
  • Weather Widgets
  • user-avatar
    Login

    Hourly Weather Prutz

    Today, 12 December, Thursday

    Time Temperature Precipitation Wind Pressure Humidity
    00:00 -4°C° 0.1 mm 0 mps 623 mmHg 71%
    01:00 -4°C° 0 mm 0 mps 623 mmHg 76%
    02:00 -4°C° 0.2 mm 0 mps 623 mmHg 77%
    03:00 -4°C° 0.2 mm 1 mps 622 mmHg 79%
    04:00 -4°C° 0.2 mm 1 mps 622 mmHg 80%
    05:00 -4°C° 0.3 mm 1 mps 622 mmHg 84%
    06:00 -4°C° 0.3 mm 1 mps 622 mmHg 89%
    07:00 -4°C° 0 mm 1 mps 622 mmHg 92%
    08:00 -4°C° 0.4 mm 1 mps 622 mmHg 92%
    09:00 -3°C° 0.4 mm 1 mps 622 mmHg 92%
    10:00 -3°C° 0.4 mm 1 mps 622 mmHg 92%
    11:00 -3°C° 0.2 mm 1 mps 622 mmHg 91%
    12:00 -2°C° 0.2 mm 1 mps 622 mmHg 89%
    13:00 -4°C° 0 mm 2 mps 622 mmHg 88%
    14:00 -5°C° 0.2 mm 2 mps 621 mmHg 90%
    15:00 -4°C° 0.2 mm 1 mps 621 mmHg 92%
    16:00 -4°C° 0.2 mm 1 mps 620 mmHg 94%
    17:00 -7°C° 0.1 mm 1 mps 619 mmHg 92%
    18:00 -8°C° 0.1 mm 1 mps 618 mmHg 91%
    19:00 -9°C° 0.1 mm 1 mps 618 mmHg 90%
    20:00 -10°C° 0 mm 2 mps 617 mmHg 86%
    21:00 -12°C° 0 mm 2 mps 617 mmHg 82%
    22:00 -13°C° 0 mm 3 mps 616 mmHg 78%
    23:00 -13°C° 0 mm 3 mps 616 mmHg 76%

    Tomorrow, 13 December, Friday

    Time Temperature Precipitation Wind Pressure Humidity
    00:00 -12°C° 0 mm 3 mps 615 mmHg 75%
    01:00 -12°C° 0 mm 4 mps 615 mmHg 73%
    02:00 -12°C° 0 mm 4 mps 614 mmHg 75%
    03:00 -11°C° 0 mm 4 mps 613 mmHg 77%
    04:00 -10°C° 0 mm 4 mps 613 mmHg 79%
    05:00 -10°C° 0 mm 4 mps 612 mmHg 80%
    06:00 -10°C° 0 mm 4 mps 612 mmHg 80%
    07:00 -11°C° 0 mm 5 mps 611 mmHg 80%
    08:00 -10°C° 0.3 mm 5 mps 611 mmHg 83%
    09:00 -9°C° 0.3 mm 4 mps 611 mmHg 85%
    10:00 -9°C° 0.3 mm 4 mps 610 mmHg 87%
    11:00 -8°C° 0.4 mm 4 mps 611 mmHg 86%
    12:00 -6°C° 0.4 mm 3 mps 611 mmHg 85%
    13:00 -4°C° 0.4 mm 2 mps 611 mmHg 84%
    14:00 -4°C° 0.4 mm 2 mps 611 mmHg 86%
    15:00 -3°C° 0.4 mm 1 mps 610 mmHg 87%
    16:00 -3°C° 0.4 mm 1 mps 610 mmHg 89%
    17:00 -4°C° 0.1 mm 1 mps 610 mmHg 88%
    18:00 -6°C° 0.1 mm 1 mps 611 mmHg 88%
    19:00 -9°C° 0.1 mm 2 mps 611 mmHg 87%
    20:00 -9°C° 0.1 mm 2 mps 611 mmHg 88%
    21:00 -9°C° 0.1 mm 2 mps 612 mmHg 89%
    22:00 -9°C° 0.1 mm 2 mps 612 mmHg 90%
    23:00 -10°C° 0.1 mm 2 mps 613 mmHg 90%

    Day after tomorrow, 14 December, Saturday

    Time Temperature Precipitation Wind Pressure Humidity
    00:00 -10°C° 0.1 mm 2 mps 614 mmHg 90%
    01:00 -12°C° 0.1 mm 3 mps 615 mmHg 89%
    02:00 -12°C° 0 mm 3 mps 615 mmHg 85%
    03:00 -12°C° 0 mm 3 mps 615 mmHg 81%
    04:00 -13°C° 0 mm 3 mps 615 mmHg 76%
    05:00 -10°C° 0 mm 3 mps 616 mmHg 72%
    06:00 -9°C° 0 mm 3 mps 617 mmHg 68%
    07:00 -7°C° 0 mm 3 mps 618 mmHg 64%
    08:00 -6°C° 0.3 mm 3 mps 619 mmHg 72%
    09:00 -5°C° 0.3 mm 3 mps 620 mmHg 79%
    10:00 -4°C° 0.3 mm 3 mps 620 mmHg 86%
    11:00 -2°C° 0.1 mm 3 mps 621 mmHg 85%
    12:00 0°C° 0.1 mm 3 mps 622 mmHg 83%
    13:00 +1°C° 0.1 mm 3 mps 623 mmHg 82%
    14:00 +1°C° 0.1 mm 3 mps 623 mmHg 86%
    15:00 +1°C° 0.1 mm 2 mps 624 mmHg 90%
    16:00 +1°C° 0.1 mm 2 mps 624 mmHg 94%
    17:00 -1°C° 0 mm 2 mps 624 mmHg 91%
    18:00 -1°C° 0 mm 2 mps 624 mmHg 87%
    19:00 -2°C° 0 mm 2 mps 624 mmHg 84%
    20:00 -2°C° 0 mm 2 mps 625 mmHg 80%
    21:00 -2°C° 0 mm 2 mps 625 mmHg 76%
    22:00 -2°C° 0 mm 3 mps 625 mmHg 72%
    23:00 -2°C° 0 mm 3 mps 626 mmHg 71%

    15 December, Sunday

    Time Temperature Precipitation Wind Pressure Humidity
    00:00 -2°C° 0 mm 3 mps 626 mmHg 69%
    01:00 -2°C° 0 mm 3 mps 626 mmHg 68%
    02:00 -2°C° 0 mm 3 mps 626 mmHg 68%
    03:00 -2°C° 0 mm 3 mps 626 mmHg 68%
    04:00 -4°C° 0 mm 3 mps 626 mmHg 68%
    05:00 -4°C° 0 mm 3 mps 626 mmHg 69%
    06:00 -4°C° 0 mm 3 mps 626 mmHg 69%
    07:00 -4°C° 0 mm 3 mps 626 mmHg 70%
    08:00 -2°C° 0 mm 3 mps 627 mmHg 72%
    09:00 -1°C° 0 mm 2 mps 628 mmHg 74%
    10:00 +1°C° 0 mm 2 mps 628 mmHg 76%
    11:00 +2°C° 0 mm 2 mps 629 mmHg 80%
    12:00 +4°C° 0 mm 1 mps 629 mmHg 85%
    13:00 +5°C° 0 mm 1 mps 629 mmHg 90%
    14:00 +4°C° 0 mm 1 mps 629 mmHg 88%
    15:00 +3°C° 0 mm 1 mps 629 mmHg 86%
    16:00 +2°C° 0 mm 1 mps 629 mmHg 85%
    17:00 -1°C° 0 mm 2 mps 629 mmHg 82%
    18:00 -2°C° 0 mm 2 mps 629 mmHg 79%
    19:00 -2°C° 0 mm 2 mps 629 mmHg 76%
    20:00 -2°C° 0 mm 2 mps 629 mmHg 76%
    21:00 -4°C° 0 mm 3 mps 630 mmHg 76%
    22:00 -4°C° 0 mm 3 mps 630 mmHg 76%
    23:00 -4°C° 0 mm 3 mps 630 mmHg 76%

    16 December, Monday

    Time Temperature Precipitation Wind Pressure Humidity
    00:00 -4°C° 0 mm 3 mps 630 mmHg 76%
    01:00 -5°C° 0 mm 3 mps 630 mmHg 76%
    02:00 -5°C° 0 mm 3 mps 630 mmHg 77%
    03:00 -5°C° 0 mm 3 mps 630 mmHg 78%
    04:00 -5°C° 0 mm 4 mps 630 mmHg 79%
    05:00 -4°C° 0 mm 4 mps 630 mmHg 80%
    06:00 -4°C° 0 mm 4 mps 630 mmHg 82%
    07:00 -4°C° 0 mm 4 mps 630 mmHg 83%
    08:00 -3°C° 0 mm 4 mps 631 mmHg 83%
    09:00 -2°C° 0 mm 4 mps 631 mmHg 83%
    10:00 -1°C° 0 mm 4 mps 632 mmHg 83%
    11:00 0°C° 0 mm 4 mps 631 mmHg 85%
    12:00 +1°C° 0 mm 4 mps 631 mmHg 87%
    13:00 +3°C° 0 mm 4 mps 631 mmHg 88%
    14:00 +1°C° 0 mm 4 mps 631 mmHg 88%
    15:00 +1°C° 0 mm 4 mps 631 mmHg 87%
    16:00 +1°C° 0 mm 4 mps 630 mmHg 87%
    17:00 0°C° 0 mm 4 mps 630 mmHg 87%
    18:00 0°C° 0 mm 4 mps 630 mmHg 87%
    19:00 0°C° 0 mm 5 mps 630 mmHg 87%
    20:00 0°C° 0 mm 5 mps 631 mmHg 87%
    21:00 0°C° 0 mm 5 mps 631 mmHg 86%
    22:00 -1°C° 0 mm 5 mps 631 mmHg 86%
    23:00 -1°C° 0 mm 5 mps 630 mmHg 86%

    17 December, Tuesday

    Time Temperature Precipitation Wind Pressure Humidity
    00:00 -1°C° 0 mm 5 mps 630 mmHg 86%
    01:00 0°C° 0 mm 5 mps 630 mmHg 86%
    02:00 -1°C° 0 mm 5 mps 630 mmHg 86%
    03:00 -1°C° 0 mm 5 mps 630 mmHg 85%
    04:00 -1°C° 0 mm 5 mps 630 mmHg 85%
    05:00 -1°C° 0 mm 4 mps 630 mmHg 85%
    06:00 -1°C° 0 mm 4 mps 630 mmHg 86%
    07:00 -1°C° 0 mm 4 mps 630 mmHg 86%
    08:00 0°C° 0 mm 4 mps 630 mmHg 86%
    09:00 0°C° 0 mm 4 mps 631 mmHg 86%
    10:00 +1°C° 0 mm 4 mps 631 mmHg 87%
    11:00 +1°C° 0 mm 4 mps 631 mmHg 88%
    12:00 +3°C° 0 mm 4 mps 631 mmHg 90%
    13:00 +3°C° 0 mm 3 mps 631 mmHg 92%
    14:00 +3°C° 0 mm 3 mps 631 mmHg 91%
    15:00 +2°C° 0 mm 3 mps 631 mmHg 89%
    16:00 +2°C° 0 mm 3 mps 631 mmHg 88%
    17:00 +2°C° 0 mm 3 mps 632 mmHg 88%
    18:00 +2°C° 0 mm 3 mps 632 mmHg 88%
    19:00 +1°C° 0 mm 3 mps 632 mmHg 88%
    20:00 +1°C° 0 mm 3 mps 632 mmHg 88%
    21:00 +1°C° 0 mm 3 mps 633 mmHg 88%
    22:00 +1°C° 0 mm 3 mps 633 mmHg 88%
    23:00 +1°C° 0 mm 3 mps 633 mmHg 88%
    Show more